• Em Portugal
  • Lista de países
  • Para 7 dias
  • Temperatura da água
  • Mapas de satélite
  • Mapa do tempo
  • Widgets de tempo
  • user-avatar
    Iniciar Sessão

    Previsão horária em Kahramanmaras

    Hoje, 22 Junho, Sexta-feira

    Tempo Temperatura Precipitação Vento Pressão Humidade
    00:00 +17°C° 0 mm 2 m/s 659 mmHg 85%
    01:00 +16°C° 0 mm 2 m/s 659 mmHg 85%
    02:00 +16°C° 0 mm 3 m/s 659 mmHg 87%
    03:00 +16°C° 0 mm 2 m/s 659 mmHg 86%
    04:00 +16°C° 0 mm 2 m/s 659 mmHg 85%
    05:00 +16°C° 0 mm 2 m/s 659 mmHg 84%
    06:00 +18°C° 0 mm 2 m/s 659 mmHg 76%
    07:00 +19°C° 0 mm 2 m/s 659 mmHg 67%
    08:00 +21°C° 0 mm 2 m/s 660 mmHg 57%
    09:00 +24°C° 0 mm 3 m/s 660 mmHg 52%
    10:00 +25°C° 0 mm 3 m/s 660 mmHg 47%
    11:00 +26°C° 0 mm 3 m/s 661 mmHg 42%
    12:00 +27°C° 0 mm 4 m/s 661 mmHg 42%
    13:00 +27°C° 0 mm 4 m/s 660 mmHg 43%
    14:00 +26°C° 0 mm 5 m/s 660 mmHg 47%
    15:00 +25°C° 0,2 mm 5 m/s 660 mmHg 51%
    16:00 +23°C° 0,2 mm 5 m/s 659 mmHg 55%
    17:00 +23°C° 0,2 mm 5 m/s 659 mmHg 59%
    18:00 +21°C° 0,1 mm 4 m/s 659 mmHg 66%
    19:00 +20°C° 0,1 mm 4 m/s 659 mmHg 72%
    20:00 +18°C° 0,1 mm 3 m/s 659 mmHg 78%
    21:00 +18°C° 0 mm 3 m/s 659 mmHg 79%
    22:00 +18°C° 0 mm 2 m/s 658 mmHg 80%
    23:00 +17°C° 0 mm 2 m/s 658 mmHg 82%

    Amanhã, 23 Junho, Sábado

    Tempo Temperatura Precipitação Vento Pressão Humidade
    00:00 +17°C° 0 mm 2 m/s 658 mmHg 82%
    01:00 +17°C° 0 mm 2 m/s 658 mmHg 83%
    02:00 +17°C° 0 mm 2 m/s 658 mmHg 83%
    03:00 +17°C° 0 mm 2 m/s 658 mmHg 82%
    04:00 +17°C° 0 mm 2 m/s 658 mmHg 81%
    05:00 +17°C° 0 mm 2 m/s 658 mmHg 80%
    06:00 +19°C° 0 mm 2 m/s 659 mmHg 72%
    07:00 +20°C° 0 mm 2 m/s 659 mmHg 64%
    08:00 +23°C° 0 mm 2 m/s 660 mmHg 55%
    09:00 +25°C° 0 mm 2 m/s 660 mmHg 50%
    10:00 +26°C° 0 mm 3 m/s 660 mmHg 45%
    11:00 +27°C° 0 mm 3 m/s 660 mmHg 40%
    12:00 +28°C° 0 mm 3 m/s 660 mmHg 40%
    13:00 +28°C° 0 mm 3 m/s 660 mmHg 40%
    14:00 +28°C° 0 mm 4 m/s 660 mmHg 40%
    15:00 +27°C° 0,3 mm 4 m/s 660 mmHg 45%
    16:00 +26°C° 0,3 mm 4 m/s 659 mmHg 51%
    17:00 +25°C° 0,3 mm 4 m/s 659 mmHg 56%
    18:00 +23°C° 0,2 mm 4 m/s 659 mmHg 63%
    19:00 +21°C° 0,2 mm 3 m/s 658 mmHg 70%
    20:00 +20°C° 0,2 mm 3 m/s 658 mmHg 77%
    21:00 +19°C° 0,1 mm 2 m/s 658 mmHg 79%
    22:00 +19°C° 0,1 mm 2 m/s 658 mmHg 80%
    23:00 +18°C° 0,1 mm 2 m/s 658 mmHg 82%

    Depois de amanhã, 24 Junho, Domingo

    Tempo Temperatura Precipitação Vento Pressão Humidade
    00:00 +18°C° 0 mm 2 m/s 658 mmHg 81%
    01:00 +18°C° 0 mm 2 m/s 658 mmHg 81%
    02:00 +18°C° 0 mm 2 m/s 658 mmHg 80%
    03:00 +18°C° 0 mm 2 m/s 658 mmHg 79%
    04:00 +18°C° 0 mm 2 m/s 658 mmHg 78%
    05:00 +17°C° 0 mm 2 m/s 657 mmHg 77%
    06:00 +19°C° 0 mm 2 m/s 658 mmHg 69%
    07:00 +21°C° 0 mm 2 m/s 659 mmHg 61%
    08:00 +24°C° 0 mm 2 m/s 659 mmHg 53%
    09:00 +25°C° 0 mm 2 m/s 659 mmHg 48%
    10:00 +27°C° 0 mm 2 m/s 660 mmHg 43%
    11:00 +28°C° 0 mm 3 m/s 660 mmHg 38%
    12:00 +29°C° 0 mm 3 m/s 660 mmHg 38%
    13:00 +29°C° 0 mm 3 m/s 660 mmHg 38%
    14:00 +29°C° 0 mm 3 m/s 659 mmHg 38%
    15:00 +29°C° 0,2 mm 4 m/s 659 mmHg 43%
    16:00 +28°C° 0,2 mm 4 m/s 659 mmHg 47%
    17:00 +27°C° 0,2 mm 4 m/s 658 mmHg 52%
    18:00 +25°C° 0,2 mm 4 m/s 658 mmHg 60%
    19:00 +22°C° 0,2 mm 3 m/s 658 mmHg 68%
    20:00 +21°C° 0,2 mm 3 m/s 658 mmHg 77%
    21:00 +20°C° 0 mm 2 m/s 658 mmHg 78%
    22:00 +20°C° 0 mm 2 m/s 658 mmHg 80%
    23:00 +19°C° 0 mm 2 m/s 658 mmHg 81%

    25 Junho, Segunda-feira

    Tempo Temperatura Precipitação Vento Pressão Humidade
    00:00 +19°C° 0 mm 2 m/s 658 mmHg 81%
    01:00 +19°C° 0 mm 2 m/s 658 mmHg 81%
    02:00 +19°C° 0 mm 2 m/s 658 mmHg 81%
    03:00 +19°C° 0 mm 2 m/s 658 mmHg 80%
    04:00 +19°C° 0 mm 2 m/s 658 mmHg 79%
    05:00 +19°C° 0 mm 2 m/s 657 mmHg 79%
    06:00 +20°C° 0 mm 2 m/s 658 mmHg 71%
    07:00 +23°C° 0 mm 2 m/s 659 mmHg 63%
    08:00 +25°C° 0 mm 2 m/s 659 mmHg 56%
    09:00 +26°C° 0 mm 2 m/s 659 mmHg 51%
    10:00 +28°C° 0 mm 2 m/s 660 mmHg 45%
    11:00 +29°C° 0 mm 2 m/s 660 mmHg 40%
    12:00 +30°C° 0 mm 3 m/s 660 mmHg 40%
    13:00 +30°C° 0 mm 3 m/s 659 mmHg 40%
    14:00 +31°C° 0 mm 3 m/s 659 mmHg 40%
    15:00 +30°C° 0,2 mm 3 m/s 659 mmHg 44%
    16:00 +29°C° 0,2 mm 4 m/s 659 mmHg 48%
    17:00 +28°C° 0,2 mm 4 m/s 658 mmHg 52%
    18:00 +26°C° 0,1 mm 3 m/s 658 mmHg 61%
    19:00 +25°C° 0,1 mm 3 m/s 658 mmHg 69%
    20:00 +23°C° 0,1 mm 2 m/s 658 mmHg 78%
    21:00 +21°C° 0 mm 2 m/s 658 mmHg 79%
    22:00 +21°C° 0 mm 2 m/s 658 mmHg 81%
    23:00 +20°C° 0 mm 2 m/s 658 mmHg 83%

    26 Junho, Terça-feira

    Tempo Temperatura Precipitação Vento Pressão Humidade
    00:00 +20°C° 0 mm 2 m/s 658 mmHg 83%
    01:00 +21°C° 0 mm 1 m/s 657 mmHg 84%
    02:00 +20°C° 0 mm 1 m/s 657 mmHg 84%
    03:00 +20°C° 0 mm 1 m/s 657 mmHg 83%
    04:00 +20°C° 0 mm 1 m/s 657 mmHg 82%
    05:00 +20°C° 0 mm 1 m/s 657 mmHg 81%
    06:00 +21°C° 0 mm 2 m/s 658 mmHg 74%
    07:00 +24°C° 0 mm 2 m/s 658 mmHg 66%
    08:00 +25°C° 0 mm 2 m/s 659 mmHg 58%
    09:00 +26°C° 0 mm 2 m/s 659 mmHg 54%
    10:00 +28°C° 0 mm 3 m/s 659 mmHg 49%
    11:00 +29°C° 0 mm 3 m/s 659 mmHg 45%
    12:00 +30°C° 0 mm 3 m/s 659 mmHg 44%
    13:00 +30°C° 0 mm 3 m/s 659 mmHg 44%
    14:00 +30°C° 0 mm 3 m/s 659 mmHg 43%
    15:00 +30°C° 0 mm 4 m/s 659 mmHg 47%
    16:00 +29°C° 0 mm 4 m/s 658 mmHg 51%
    17:00 +28°C° 0 mm 4 m/s 658 mmHg 55%
    18:00 +26°C° 0 mm 3 m/s 658 mmHg 63%
    19:00 +25°C° 0 mm 3 m/s 658 mmHg 72%
    20:00 +23°C° 0 mm 2 m/s 658 mmHg 80%
    21:00 +21°C° 0 mm 2 m/s 658 mmHg 82%
    22:00 +20°C° 0 mm 2 m/s 658 mmHg 84%
    23:00 +20°C° 0 mm 2 m/s 658 mmHg 86%

    27 Junho, Quarta-feira

    Tempo Temperatura Precipitação Vento Pressão Humidade
    00:00 +19°C° 0 mm 2 m/s 657 mmHg 86%
    01:00 +19°C° 0 mm 2 m/s 657 mmHg 86%
    02:00 +18°C° 0 mm 2 m/s 657 mmHg 86%
    03:00 +18°C° 0 mm 2 m/s 657 mmHg 85%
    04:00 +18°C° 0 mm 2 m/s 657 mmHg 83%
    05:00 +19°C° 0 mm 1 m/s 657 mmHg 82%
    06:00 +20°C° 0 mm 2 m/s 658 mmHg 71%
    07:00 +23°C° 0 mm 2 m/s 659 mmHg 60%
    08:00 +25°C° 0 mm 2 m/s 659 mmHg 50%
    09:00 +27°C° 0 mm 3 m/s 659 mmHg 44%
    10:00 +28°C° 0 mm 3 m/s 660 mmHg 39%
    11:00 +30°C° 0 mm 3 m/s 660 mmHg 34%
    12:00 +30°C° 0 mm 4 m/s 660 mmHg 34%
    13:00 +32°C° 0 mm 4 m/s 660 mmHg 34%
    14:00 +32°C° 0 mm 4 m/s 659 mmHg 34%
    15:00 +30°C° 0 mm 4 m/s 659 mmHg 39%
    16:00 +29°C° 0 mm 4 m/s 659 mmHg 43%
    17:00 +28°C° 0 mm 4 m/s 659 mmHg 47%
    18:00 +26°C° 0 mm 3 m/s 658 mmHg 55%
    19:00 +24°C° 0 mm 3 m/s 658 mmHg 62%
    20:00 +23°C° 0 mm 2 m/s 658 mmHg 70%
    21:00 +21°C° 0 mm 2 m/s 658 mmHg 71%
    22:00 +21°C° 0 mm 2 m/s 658 mmHg 72%
    23:00 +20°C° 0 mm 2 m/s 658 mmHg 73%
    Mostrar mais